User: anonymous   Login
Location: Hoyos del Collado
(40.3594°N, 5.2003°W)
Time: 23:57:25
(UTC+00:00)
Language:

Cosmos 2297 Rocket - Orbit

View from above orbital plane
View from above orbital plane
View from above satellite
View from above satellite

Ground track
Ground track

The orbit data is extracted from the following two-line orbital elements,

1 23405U 94077B   24175.56020204 -.00000181  00000-0 -68176-4 0  9993
2 23405  70.9816 225.3920 0002337 336.5446  23.5570 14.15396651527913
Epoch (UTC): 23 June 2024 13:26:41
Eccentricity: 0.0002337
inclination: 70.9816°
perigee height: 839 km
apogee height: 842 km
right ascension of ascending node: 225.3920°
argument of perigee: 336.5446°
revolutions per day: 14.15396651
mean anomaly at epoch: 23.5570°
orbit number at epoch: 52791

The dashed part of the orbit path shows where the satellite is in the earth's shadow,  

DLR